• In Uzbekistan
  • List of Countries
  • For 7 days
  • Water Temperature
  • Satellite Maps
  • Weather Map
  • Weather Widgets
  • user-avatar
    Login

    Hourly Weather Fredericton

    Today, 20 July, Friday

    Time Temperature Precipitation Wind Pressure Humidity
    00:00 +16°C° 0 mm 1 mps 762 mmHg 71%
    01:00 +15°C° 0 mm 1 mps 762 mmHg 74%
    02:00 +15°C° 0 mm 1 mps 762 mmHg 77%
    03:00 +15°C° 0 mm 1 mps 762 mmHg 79%
    04:00 +14°C° 0 mm 1 mps 762 mmHg 80%
    05:00 +14°C° 0 mm 1 mps 762 mmHg 81%
    06:00 +18°C° 0 mm 1 mps 763 mmHg 75%
    07:00 +20°C° 0 mm 1 mps 763 mmHg 69%
    08:00 +23°C° 0 mm 1 mps 763 mmHg 64%
    09:00 +25°C° 0 mm 1 mps 763 mmHg 57%
    10:00 +27°C° 0 mm 2 mps 764 mmHg 51%
    11:00 +29°C° 0 mm 2 mps 764 mmHg 44%
    12:00 +30°C° 0 mm 2 mps 763 mmHg 42%
    13:00 +31°C° 0 mm 2 mps 763 mmHg 39%
    14:00 +31°C° 0 mm 2 mps 763 mmHg 37%
    15:00 +31°C° 0 mm 2 mps 763 mmHg 39%
    16:00 +31°C° 0 mm 2 mps 763 mmHg 41%
    17:00 +30°C° 0 mm 2 mps 763 mmHg 43%
    18:00 +28°C° 0 mm 2 mps 763 mmHg 53%
    19:00 +25°C° 0 mm 2 mps 764 mmHg 63%
    20:00 +22°C° 0 mm 1 mps 764 mmHg 73%
    21:00 +21°C° 0 mm 1 mps 764 mmHg 75%
    22:00 +19°C° 0 mm 1 mps 764 mmHg 77%
    23:00 +18°C° 0 mm 1 mps 765 mmHg 79%

    Tomorrow, 21 July, Saturday

    Time Temperature Precipitation Wind Pressure Humidity
    00:00 +16°C° 0 mm 1 mps 765 mmHg 80%
    01:00 +16°C° 0 mm 1 mps 765 mmHg 82%
    02:00 +14°C° 0 mm 0 mps 765 mmHg 83%
    03:00 +13°C° 0 mm 0 mps 765 mmHg 84%
    04:00 +13°C° 0 mm 0 mps 765 mmHg 84%
    05:00 +13°C° 0 mm 0 mps 765 mmHg 84%
    06:00 +15°C° 0 mm 0 mps 765 mmHg 76%
    07:00 +18°C° 0 mm 0 mps 765 mmHg 69%
    08:00 +21°C° 0 mm 0 mps 765 mmHg 61%
    09:00 +25°C° 0 mm 1 mps 765 mmHg 56%
    10:00 +27°C° 0 mm 1 mps 765 mmHg 51%
    11:00 +29°C° 0 mm 1 mps 765 mmHg 46%
    12:00 +30°C° 0 mm 1 mps 764 mmHg 43%
    13:00 +30°C° 0 mm 2 mps 764 mmHg 40%
    14:00 +31°C° 0 mm 2 mps 764 mmHg 37%
    15:00 +31°C° 0 mm 2 mps 764 mmHg 39%
    16:00 +31°C° 0 mm 2 mps 763 mmHg 41%
    17:00 +31°C° 0 mm 2 mps 763 mmHg 43%
    18:00 +28°C° 0 mm 2 mps 763 mmHg 54%
    19:00 +26°C° 0 mm 1 mps 763 mmHg 66%
    20:00 +23°C° 0 mm 1 mps 764 mmHg 78%
    21:00 +22°C° 0 mm 1 mps 764 mmHg 83%
    22:00 +21°C° 0 mm 1 mps 764 mmHg 88%
    23:00 +17°C° 0 mm 0 mps 764 mmHg 93%

    Day after tomorrow, 22 July, Sunday

    Time Temperature Precipitation Wind Pressure Humidity
    00:00 +17°C° 0 mm 0 mps 764 mmHg 94%
    01:00 +17°C° 0 mm 0 mps 764 mmHg 95%
    02:00 +17°C° 0 mm 0 mps 764 mmHg 95%
    03:00 +16°C° 0 mm 0 mps 764 mmHg 96%
    04:00 +18°C° 0 mm 1 mps 764 mmHg 97%
    05:00 +18°C° 0 mm 1 mps 764 mmHg 97%
    06:00 +20°C° 0 mm 1 mps 764 mmHg 93%
    07:00 +21°C° 0 mm 1 mps 764 mmHg 89%
    08:00 +23°C° 0 mm 2 mps 765 mmHg 85%
    09:00 +24°C° 0 mm 2 mps 765 mmHg 80%
    10:00 +26°C° 0 mm 2 mps 765 mmHg 74%
    11:00 +27°C° 0 mm 2 mps 764 mmHg 69%
    12:00 +27°C° 0 mm 2 mps 764 mmHg 71%
    13:00 +27°C° 0 mm 3 mps 764 mmHg 74%
    14:00 +26°C° 0 mm 3 mps 764 mmHg 77%
    15:00 +25°C° 0.3 mm 3 mps 764 mmHg 83%
    16:00 +24°C° 0.3 mm 2 mps 764 mmHg 90%
    17:00 +23°C° 0.3 mm 2 mps 764 mmHg 96%
    18:00 +23°C° 0.3 mm 2 mps 764 mmHg 97%
    19:00 +23°C° 0.3 mm 2 mps 765 mmHg 98%
    20:00 +21°C° 0.3 mm 2 mps 765 mmHg 98%
    21:00 +21°C° 0.6 mm 2 mps 765 mmHg 98%
    22:00 +21°C° 0.6 mm 2 mps 765 mmHg 98%
    23:00 +21°C° 0.6 mm 3 mps 765 mmHg 98%

    23 July, Monday

    Time Temperature Precipitation Wind Pressure Humidity
    00:00 +21°C° 0.4 mm 3 mps 765 mmHg 98%
    01:00 +21°C° 0.4 mm 3 mps 765 mmHg 98%
    02:00 +21°C° 0.4 mm 3 mps 764 mmHg 98%
    03:00 +21°C° 0.7 mm 3 mps 764 mmHg 98%
    04:00 +21°C° 0.7 mm 3 mps 764 mmHg 98%
    05:00 +21°C° 0.7 mm 3 mps 764 mmHg 98%
    06:00 +21°C° 0.2 mm 3 mps 765 mmHg 98%
    07:00 +21°C° 0.2 mm 3 mps 765 mmHg 98%
    08:00 +21°C° 0.2 mm 3 mps 765 mmHg 98%
    09:00 +22°C° 0.2 mm 3 mps 765 mmHg 97%
    10:00 +22°C° 0.2 mm 3 mps 765 mmHg 97%
    11:00 +22°C° 0.2 mm 3 mps 765 mmHg 96%
    12:00 +25°C° 0.1 mm 4 mps 765 mmHg 92%
    13:00 +26°C° 0.1 mm 4 mps 765 mmHg 88%
    14:00 +27°C° 0.1 mm 4 mps 765 mmHg 84%
    15:00 +28°C° 0 mm 4 mps 765 mmHg 79%
    16:00 +29°C° 0 mm 4 mps 764 mmHg 74%
    17:00 +30°C° 0 mm 4 mps 764 mmHg 69%
    18:00 +29°C° 0 mm 4 mps 765 mmHg 75%
    19:00 +27°C° 0 mm 4 mps 765 mmHg 80%
    20:00 +26°C° 0 mm 4 mps 765 mmHg 85%
    21:00 +25°C° 0 mm 4 mps 765 mmHg 88%
    22:00 +23°C° 0 mm 4 mps 765 mmHg 90%
    23:00 +23°C° 0 mm 4 mps 765 mmHg 93%

    24 July, Tuesday

    Time Temperature Precipitation Wind Pressure Humidity
    00:00 +22°C° 0 mm 4 mps 765 mmHg 93%
    01:00 +22°C° 0 mm 3 mps 765 mmHg 93%
    02:00 +22°C° 0 mm 3 mps 765 mmHg 94%
    03:00 +22°C° 0.1 mm 3 mps 765 mmHg 94%
    04:00 +22°C° 0.1 mm 3 mps 765 mmHg 94%
    05:00 +22°C° 0.1 mm 3 mps 765 mmHg 95%
    06:00 +24°C° 0 mm 3 mps 765 mmHg 94%
    07:00 +24°C° 0 mm 3 mps 766 mmHg 93%
    08:00 +24°C° 0 mm 3 mps 766 mmHg 92%
    09:00 +25°C° 0 mm 4 mps 766 mmHg 87%
    10:00 +27°C° 0 mm 4 mps 765 mmHg 83%
    11:00 +28°C° 0 mm 4 mps 765 mmHg 78%
    12:00 +29°C° 0.1 mm 4 mps 765 mmHg 73%
    13:00 +32°C° 0.1 mm 4 mps 764 mmHg 67%
    14:00 +33°C° 0.1 mm 5 mps 764 mmHg 62%
    15:00 +33°C° 0.4 mm 5 mps 764 mmHg 65%
    16:00 +32°C° 0.4 mm 5 mps 764 mmHg 68%
    17:00 +32°C° 0.4 mm 5 mps 763 mmHg 71%
    18:00 +29°C° 0 mm 4 mps 763 mmHg 74%
    19:00 +28°C° 0 mm 4 mps 763 mmHg 77%
    20:00 +26°C° 0 mm 4 mps 763 mmHg 81%
    21:00 +25°C° 0 mm 4 mps 764 mmHg 83%
    22:00 +25°C° 0 mm 4 mps 764 mmHg 86%
    23:00 +23°C° 0 mm 4 mps 764 mmHg 89%

    25 July, Wednesday

    Time Temperature Precipitation Wind Pressure Humidity
    00:00 +23°C° 0 mm 4 mps 763 mmHg 90%
    01:00 +22°C° 0 mm 4 mps 763 mmHg 91%
    02:00 +22°C° 0 mm 3 mps 763 mmHg 92%
    03:00 +22°C° 0 mm 3 mps 763 mmHg 93%
    04:00 +22°C° 0 mm 3 mps 763 mmHg 94%
    05:00 +22°C° 0 mm 3 mps 763 mmHg 95%
    06:00 +22°C° 0 mm 3 mps 763 mmHg 92%
    07:00 +24°C° 0 mm 3 mps 763 mmHg 88%
    08:00 +25°C° 0 mm 3 mps 763 mmHg 84%
    09:00 +27°C° 0.3 mm 4 mps 763 mmHg 82%
    10:00 +28°C° 0.3 mm 4 mps 762 mmHg 80%
    11:00 +29°C° 0.3 mm 4 mps 762 mmHg 78%
    12:00 +29°C° 1.3 mm 4 mps 762 mmHg 81%
    13:00 +29°C° 1.3 mm 4 mps 762 mmHg 84%
    14:00 +29°C° 1.3 mm 4 mps 761 mmHg 86%
    15:00 +29°C° 0.9 mm 4 mps 761 mmHg 86%
    16:00 +28°C° 0.9 mm 3 mps 761 mmHg 86%
    17:00 +28°C° 0.9 mm 3 mps 761 mmHg 86%
    18:00 +27°C° 0.7 mm 3 mps 761 mmHg 89%
    19:00 +26°C° 0.7 mm 3 mps 761 mmHg 92%
    20:00 +24°C° 0.7 mm 2 mps 761 mmHg 94%
    21:00 +24°C° 0.8 mm 2 mps 761 mmHg 95%
    22:00 +23°C° 0.8 mm 2 mps 761 mmHg 96%
    23:00 +23°C° 0.8 mm 2 mps 761 mmHg 97%
    Show more